GW4271 Weather Reports


time (UTC)temp
C
wind
direction
speed
KPH
gust
KPH
rain 1hr
cm
rain 24hr
cm
rain mn
cm
humidity
%
barometer
mb
20260504050312 18 116 1.6 1.6 0.00 0.00 0.00 75 1019.8
20260504045808 18 54 1.6 4.8 0.00 0.00 0.00 74 1019.7
20260504045304 18 358 6.4 6.4 0.00 0.00 0.00 75 1019.8
20260504044800 18 148 1.6 1.6 0.00 0.00 0.00 75 1019.7
20260504044258 18 89 3.2 3.2 0.00 0.00 0.00 76 1019.8
20260504043755 17 100 1.6 3.2 0.00 0.00 0.00 77 1019.7
20260504043252 17 76 1.6 3.2 0.00 0.00 0.00 78 1019.7
20260504042750 17 73 1.6 4.8 0.00 0.00 0.00 79 1019.6
20260504042245 16 98 1.6 3.2 0.00 0.00 0.00 81 1019.7
20260504041741 16 133 0.0 0.0 0.00 0.00 0.00 83 1019.7
20260504041237 15 179 0.0 3.2 0.00 0.00 0.00 84 1019.8
20260504040728 16 152 0.0 0.0 0.00 0.00 0.00 83 1019.3
20260504040226 15 152 0.0 0.0 0.00 0.00 0.00 83 1019.4
20260504035722 16 152 0.0 0.0 0.00 0.00 0.00 83 1019.3
20260504035219 16 152 0.0 0.0 0.00 0.00 0.00 80 1019.5
20260504034716 16 152 0.0 0.0 0.00 0.00 0.00 79 1019.5
20260504034213 17 152 0.0 0.0 0.00 0.00 0.00 79 1019.5
20260504033706 17 152 0.0 0.0 0.00 0.00 0.00 79 1019.4
20260504033203 16 152 0.0 0.0 0.00 0.00 0.00 79 1019.5
20260504032659 16 152 0.0 0.0 0.00 0.00 0.00 79 1019.6
20260504032157 17 152 0.0 0.0 0.00 0.00 0.00 79 1019.6
20260504031653 17 152 0.0 0.0 0.00 0.00 0.00 78 1019.7
20260504031149 17 137 0.0 0.0 0.00 0.00 0.00 78 1019.5
20260504030646 16 128 0.0 0.0 0.00 0.00 0.00 79 1019.6
20260504030138 16 163 0.0 0.0 0.00 0.00 0.00 78 1019.7
20260504025634 17 163 0.0 0.0 0.00 0.00 0.00 77 1019.6
20260504025131 17 163 0.0 0.0 0.00 0.00 0.00 77 1019.6
20260504024628 17 147 0.0 0.0 0.00 0.00 0.00 77 1019.6
20260504024125 17 120 0.0 0.0 0.00 0.00 0.00 77 1019.7
20260504023621 17 142 0.0 0.0 0.00 0.00 0.00 77 1019.6
20260504023116 17 140 0.0 0.0 0.00 0.00 0.00 76 1019.4
20260504022613 17 136 0.0 0.0 0.00 0.00 0.00 75 1019.4
20260504022109 17 139 0.0 0.0 0.00 0.00 0.00 74 1019.5
20260504021607 18 133 0.0 0.0 0.00 0.00 0.00 74 1019.4
20260504021104 18 158 0.0 0.0 0.00 0.00 0.00 73 1019.2
20260504020600 18 157 0.0 0.0 0.00 0.00 0.00 73 1019.3
20260504020057 18 180 0.0 1.6 0.00 0.00 0.00 72 1019.3
20260504015553 18 135 0.0 0.0 0.00 0.00 0.00 72 1019.3
20260504015049 18 115 0.0 0.0 0.00 0.00 0.00 71 1019.2
20260504014546 18 166 1.6 3.2 0.00 0.00 0.00 71 1019.0
20260504014043 18 147 0.0 0.0 0.00 0.00 0.00 70 1019.1
20260504013541 19 158 0.0 1.6 0.00 0.00 0.00 69 1018.8
20260504013037 19 175 0.0 0.0 0.00 0.00 0.00 69 1018.9
20260504012530 19 139 0.0 0.0 0.00 0.00 0.00 68 1018.8
20260504012027 19 144 0.0 1.6 0.00 0.00 0.00 67 1018.7
20260504011523 20 166 1.6 1.6 0.00 0.00 0.00 67 1018.7
20260504011019 20 125 0.0 0.0 0.00 0.00 0.00 66 1018.7
20260504010515 20 137 0.0 1.6 0.00 0.00 0.00 65 1018.7
20260504010011 20 150 0.0 1.6 0.00 0.00 0.00 65 1018.6
20260504005508 20 147 0.0 1.6 0.00 0.00 0.00 64 1018.5
20260504005006 20 132 0.0 1.6 0.00 0.00 0.00 64 1018.5
20260504004503 20 129 1.6 1.6 0.00 0.00 0.00 63 1018.4
20260504004000 20 181 0.0 1.6 0.00 0.00 0.00 61 1018.5
20260504003456 20 131 0.0 0.0 0.00 0.00 0.00 61 1018.6
20260504002953 20 119 0.0 3.2 0.00 0.00 0.00 60 1018.5
20260504002450 20 101 0.0 3.2 0.00 0.00 0.00 59 1018.4
20260504001947 21 137 0.0 3.2 0.00 0.00 0.00 56 1018.1
20260504001445 21 142 0.0 3.2 0.00 0.00 0.00 56 1018.3
20260504000942 21 102 0.0 0.0 0.00 0.00 0.00 55 1018.3
20260504000439 21 107 0.0 4.8 0.00 0.00 0.00 54 1018.1
20260503235936 21 94 0.0 3.2 0.00 0.00 0.00 52 1018.3
20260503235433 21 148 3.2 4.8 0.00 0.00 0.00 52 1018.2
20260503234931 21 88 3.2 4.8 0.00 0.00 0.00 52 1018.1
20260503234428 21 152 3.2 4.8 0.00 0.00 0.00 53 1018.3
20260503233926 21 110 0.0 3.2 0.00 0.00 0.00 52 1018.2
20260503233422 22 126 3.2 9.7 0.00 0.00 0.00 51 1018.4
20260503232919 22 165 1.6 9.7 0.00 0.00 0.00 51 1018.3
20260503232416 22 168 1.6 4.8 0.00 0.00 0.00 49 1018.3
20260503231914 22 162 3.2 6.4 0.00 0.00 0.00 50 1018.2
20260503231411 22 37 1.6 4.8 0.00 0.00 0.00 48 1018.4
20260503230907 22 206 1.6 4.8 0.00 0.00 0.00 49 1018.4
20260503230403 22 133 0.0 6.4 0.00 0.00 0.00 48 1018.4
20260503225901 22 160 1.6 4.8 0.00 0.00 0.00 48 1018.2
20260503225357 22 133 6.4 11.3 0.00 0.00 0.00 48 1018.3
20260503224853 22 110 6.4 6.4 0.00 0.00 0.00 48 1018.3
20260503224351 22 165 4.8 6.4 0.00 0.00 0.00 48 1018.3
20260503223848 22 115 4.8 11.3 0.00 0.00 0.00 47 1018.3
20260503223346 22 143 6.4 9.7 0.00 0.00 0.00 47 1018.2
20260503222841 23 103 4.8 11.3 0.00 0.00 0.00 48 1018.3
20260503222340 23 138 1.6 12.9 0.00 0.00 0.00 50 1018.2
20260503221838 23 75 6.4 12.9 0.00 0.00 0.00 49 1018.3
20260503221337 23 143 3.2 6.4 0.00 0.00 0.00 46 1018.3
20260503220832 25 185 1.6 3.2 0.00 0.00 0.00 36 1018.3
20260503220329 25 200 1.6 1.6 0.00 0.00 0.00 37 1018.3
20260503215826 25 51 3.2 6.4 0.00 0.00 0.00 35 1018.3
20260503215323 25 242 4.8 6.4 0.00 0.00 0.00 34 1018.3
20260503214821 25 357 4.8 6.4 0.00 0.00 0.00 34 1018.1
20260503214318 25 337 3.2 11.3 0.00 0.00 0.00 35 1018.4
20260503213815 25 336 6.4 6.4 0.00 0.00 0.00 35 1018.4
20260503213313 25 171 0.0 1.6 0.00 0.00 0.00 34 1018.2
20260503212804 25 160 0.0 6.4 0.00 0.00 0.00 35 1018.6
20260503212304 25 8 4.8 6.4 0.00 0.00 0.00 34 1018.5
20260503211759 25 352 4.8 9.7 0.00 0.00 0.00 35 1018.6
20260503211255 25 75 1.6 3.2 0.00 0.00 0.00 36 1018.7
20260503210749 25 173 1.6 9.7 0.00 0.00 0.00 37 1018.7
20260503210248 25 352 6.4 9.7 0.00 0.00 0.00 34 1018.8
20260503205743 25 158 0.0 3.2 0.00 0.00 0.00 37 1018.6
20260503205239 25 255 3.2 3.2 0.00 0.00 0.00 33 1018.8
20260503204735 25 165 1.6 4.8 0.00 0.00 0.00 34 1018.5
20260503204233 25 46 4.8 11.3 0.00 0.00 0.00 34 1018.8
20260503203730 25 16 6.4 6.4 0.00 0.00 0.00 33 1018.9
20260503203228 25 335 3.2 9.7 0.00 0.00 0.00 34 1019.2
20260503202725 25 348 3.2 6.4 0.00 0.00 0.00 34 1019.2
20260503202223 25 342 3.2 9.7 0.00 0.00 0.00 36 1019.2
20260503201721 25 170 1.6 6.4 0.00 0.00 0.00 34 1019.2
20260503201218 25 76 3.2 4.8 0.00 0.00 0.00 33 1019.1
20260503200714 25 350 3.2 4.8 0.00 0.00 0.00 34 1019.3
20260503200211 24 14 0.0 4.8 0.00 0.00 0.00 35 1019.3
20260503195708 24 5 6.4 6.4 0.00 0.00 0.00 34 1019.5
20260503195205 24 346 8.0 12.9 0.00 0.00 0.00 35 1019.6
20260503194701 24 176 1.6 6.4 0.00 0.00 0.00 40 1019.8
20260503194156 25 326 6.4 11.3 0.00 0.00 0.00 34 1020.0
20260503193653 24 137 3.2 3.2 0.00 0.00 0.00 35 1020.0
20260503193150 24 7 3.2 11.3 0.00 0.00 0.00 35 1020.1
20260503192645 24 159 0.0 4.8 0.00 0.00 0.00 37 1020.1
20260503192140 25 222 3.2 4.8 0.00 0.00 0.00 37 1020.1
20260503191637 24 196 4.8 9.7 0.00 0.00 0.00 36 1020.2
20260503191135 24 103 3.2 6.4 0.00 0.00 0.00 35 1020.5
20260503190632 23 21 6.4 12.9 0.00 0.00 0.00 38 1020.5
20260503190129 24 11 3.2 6.4 0.00 0.00 0.00 35 1020.6
20260503185625 23 336 6.4 11.3 0.00 0.00 0.00 34 1020.7
20260503185120 24 337 6.4 11.3 0.00 0.00 0.00 33 1020.8
20260503184615 23 153 3.2 6.4 0.00 0.00 0.00 34 1020.9
20260503184112 23 24 1.6 11.3 0.00 0.00 0.00 35 1020.9
20260503183609 23 331 6.4 14.5 0.00 0.00 0.00 33 1020.9
20260503183106 23 336 9.7 11.3 0.00 0.00 0.00 32 1020.9
20260503182605 23 271 6.4 14.5 0.00 0.00 0.00 34 1021.0
20260503182102 23 1 6.4 12.9 0.00 0.00 0.00 32 1021.1
20260503181559 23 352 6.4 16.1 0.00 0.00 0.00 34 1021.0
20260503181055 23 6 8.0 11.3 0.00 0.00 0.00 33 1021.2
20260503180552 23 351 4.8 14.5 0.00 0.00 0.00 34 1021.0
20260503180050 23 326 8.0 12.9 0.00 0.00 0.00 36 1021.1
20260503175547 23 7 4.8 12.9 0.00 0.00 0.00 35 1021.2
20260503175044 23 43 8.0 16.1 0.00 0.00 0.00 34 1021.3
20260503174541 23 349 4.8 12.9 0.00 0.00 0.00 37 1021.1
20260503174037 23 46 3.2 9.7 0.00 0.00 0.00 36 1021.1
20260503173532 23 332 3.2 4.8 0.00 0.00 0.00 36 1021.1
20260503173029 23 311 11.3 14.5 0.00 0.00 0.00 35 1021.4
20260503172527 23 190 6.4 14.5 0.00 0.00 0.00 40 1021.4
20260503172024 23 69 1.6 6.4 0.00 0.00 0.00 44 1021.4
20260503171520 23 333 9.7 12.9 0.00 0.00 0.00 37 1021.6
20260503171018 23 317 6.4 11.3 0.00 0.00 0.00 39 1021.5
20260503170514 23 24 4.8 9.7 0.00 0.00 0.00 38 1021.7
20260503150906 20 326 9.7 11.3 0.00 0.00 0.00 59 1022.3
20260503150403 20 350 4.8 6.4 0.00 0.00 0.00 59 1022.3
20260503131256 17 89 1.6 11.3 0.00 0.00 0.00 73 1021.6
20260503130753 16 349 1.6 6.4 0.00 0.00 0.00 75 1021.4
20260503130251 16 314 6.4 9.7 0.00 0.00 0.00 73 1021.4
20260503120217 15 329 4.8 6.4 0.00 0.00 0.00 82 1021.1
20260503110644 12 316 3.2 4.8 0.00 0.00 0.00 87 1020.7
20260503110141 12 315 1.6 3.2 0.00 0.00 0.00 87 1020.7
20260503100108 13 326 0.0 1.6 0.00 0.00 0.00 81 1020.3
20260503081457 15 25 0.0 1.6 0.00 0.00 0.00 74 1019.9
20260503080954 15 121 0.0 4.8 0.00 0.00 0.00 73 1019.6
20260503080451 15 145 0.0 4.8 0.00 0.00 0.00 74 1019.4
20260503072927 15 332 0.0 4.8 0.00 0.00 0.00 74 1019.6
20260503072425 15 146 0.0 0.0 0.00 0.00 0.00 74 1019.6
20260503071922 15 154 0.0 3.2 0.00 0.00 0.00 73 1019.6
20260503071419 16 150 0.0 0.0 0.00 0.00 0.00 71 1019.6
20260503070915 16 251 1.6 3.2 0.00 0.00 0.00 69 1019.6
20260503070412 16 131 1.6 6.4 0.00 0.00 0.00 68 1019.5